Custer, SD

3:38 PM MDT on June 27, 2017 (GMT -0600)
Custer County

Weather History for KCUT - May, 2013

Change the Weather History Date:

Monday, May 6, 2013

  Actual Average Record
Temperature  
Mean Temperature 45 °F 45 °F  
Max Temperature 62 °F 58 °F 79 °F (2016)
Min Temperature 28 °F 33 °F 19 °F (1960)
Degree Days  
Heating Degree Days 20 20  
Month to date heating degree days 167 122  
Since 1 July heating degree days 7771 7772  
Cooling Degree Days 0 0  
Month to date cooling degree days 0 0  
Year to date cooling degree days 0 0  
Moisture  
Dew Point 22 °F    
Average Humidity 46    
Maximum Humidity 69    
Minimum Humidity 22    
Precipitation  
Precipitation 0.00 in 0.08 in 1.23 in (1927)
Month to date precipitation T 0.58  
Year to date precipitation 5.30 4.57  
Sea Level Pressure  
Sea Level Pressure 30.04 in    
Wind  
Wind Speed 4 mph (NNE)    
Max Wind Speed 14 mph    
Max Gust Speed 18 mph    
Visibility 10 miles    
Events      
T = Trace of Precipitation, MM = Missing Value Source: NWS Daily Summary

Daily Weather History Graph

Daily Weather History Graph

Search for Another Location

Airport or City:

Trip Planner

Search our weather history database for the weather conditions in past years. The results will help you decide how hot, cold, wet, or windy it might be!

Date:

Astronomy

May. 06, 2013 Rise Set
Actual Time 5:39 AM MDT 8:03 PM MDT
Civil Twilight 5:07 AM MDT 8:35 PM MDT
Nautical Twilight 4:27 AM MDT 9:15 PM MDT
Astronomical Twilight 3:42 AM MDT 10:00 PM MDT
Moon 3:49 AM MDT (5/6) 5:00 PM MDT (5/6)
Length of Visible Light 15h 28m
Length of Day
14h 23m
Waning Crescent, 10% of the Moon is Illuminated
May 6
Waning Crescent
May 9
New
May 17
First Quarter
May 24
Full
May 31
Last Quarter

Hourly Weather History & Observations

Time (MDT) Temp. Windchill Dew Point Humidity Pressure Visibility Wind Dir Wind Speed Gust Speed Precip Events Conditions
12:53 AM 28.9 °F 25.2 °F 19.9 °F 69% 30.15 in 10.0 mi WNW 3.5 mph - N/A   Clear
1:53 AM 28.9 °F 25.2 °F 19.0 °F 67% 30.12 in 10.0 mi NNW 3.5 mph - N/A   Clear
2:53 AM 28.0 °F 24.2 °F 19.0 °F 69% 30.12 in 10.0 mi NW 3.5 mph - N/A   Clear
3:53 AM 28.9 °F 25.2 °F 19.0 °F 67% 30.10 in 10.0 mi WNW 3.5 mph - N/A   Clear
4:53 AM 28.9 °F 25.2 °F 19.0 °F 67% 30.10 in 10.0 mi NW 3.5 mph - N/A   Clear
5:53 AM 28.9 °F 25.2 °F 19.0 °F 67% 30.10 in 10.0 mi NW 3.5 mph - N/A   Clear
6:53 AM 35.1 °F - 23.0 °F 61% 30.09 in 10.0 mi Calm Calm - N/A   Clear
7:53 AM 46.0 °F - 19.9 °F 35% 30.07 in 10.0 mi Calm Calm - N/A   Clear
8:53 AM 51.1 °F - 19.9 °F 29% 30.07 in 10.0 mi Variable 3.5 mph - N/A   Clear
9:53 AM 54.0 °F - 21.9 °F 29% 30.06 in 10.0 mi Variable 4.6 mph - N/A   Clear
10:53 AM 55.0 °F - 21.9 °F 28% 30.08 in 10.0 mi Variable 3.5 mph - N/A   Clear
11:53 AM 57.0 °F - 23.0 °F 27% 30.07 in 10.0 mi SSE 8.1 mph - N/A   Clear
12:53 PM 59.0 °F - 21.9 °F 24% 30.05 in 10.0 mi Variable 6.9 mph 16.1 mph N/A   Partly Cloudy
1:53 PM 61.0 °F - 21.9 °F 22% 30.02 in 10.0 mi Variable 5.8 mph - N/A   Partly Cloudy
2:53 PM 61.0 °F - 21.9 °F 22% 30.00 in 10.0 mi ESE 6.9 mph - N/A   Partly Cloudy
3:53 PM 61.0 °F - 21.9 °F 22% 29.98 in 10.0 mi Variable 4.6 mph - N/A   Mostly Cloudy
4:53 PM 60.1 °F - 24.1 °F 25% 29.97 in 10.0 mi Variable 5.8 mph - N/A   Partly Cloudy
5:53 PM 57.0 °F - 24.1 °F 28% 30.00 in 10.0 mi South 5.8 mph - N/A   Mostly Cloudy
6:53 PM 55.9 °F - 25.0 °F 30% 29.97 in 10.0 mi SE 5.8 mph - N/A   Overcast
7:53 PM 53.1 °F - 25.0 °F 34% 29.95 in 10.0 mi East 5.8 mph - N/A   Scattered Clouds
8:53 PM 48.9 °F - 25.0 °F 39% 29.96 in 10.0 mi East 5.8 mph - N/A   Clear
9:53 PM 44.1 °F - 25.0 °F 47% 29.98 in 10.0 mi Calm Calm - N/A   Partly Cloudy
10:53 PM 44.1 °F 42.5 °F 24.1 °F 45% 29.97 in 10.0 mi NE 3.5 mph - N/A   Mostly Cloudy
11:53 PM 42.1 °F 39.2 °F 25.0 °F 51% 29.96 in 10.0 mi NE 4.6 mph - N/A   Partly Cloudy